DIAMANT DEB, 2684

Orbit data source: Space-Track

DIAMANT DEB, 2684 is space debris in LEO originally from a launch on Wed, 15 Feb 1967 UTC launched from the Hamma Guira Space Track Range (HGSTR). Debris objects in space refer to the collection of defunct objects orbiting the Earth. Examples of debris include non-operational satellites, rocket bodies, and fragments generated from explosions, collisions, or faulty payload assembly.

Loading next visibility...
Identifier
2684, 1967-014C
Orbit
LEO
Last TLE update
18 hours ago
Origin
Manufacturer
Unknown
Mission
Spacecraft
Bus & Motor
Unknown
Mass
Unknown
Launch date (UTC)
1967-02-15 (58 years ago)
Launch vehicle
Unknown
Launch site
Hamma Guira Space Track Range (HGSTR)
Object type
Payload
Rocket body
Debris
Shape & HBR
Unknown
Radar Cross Section
Small (<0.1 m²)

Expand to show TLE details & history

TLE from 18 hours ago
0 DIAMANT DEB
1 02684U 67014C   25128.46649826  .00002725  00000-0  66225-3 0  9991
2 02684  39.9558 209.5319 0454361  69.5330 295.3599 14.06265151883944
Epoch: 2025-05-08T11:11Z
Definitive object data (Epoch: 2025-05-08T11:11:45.449Z)
Latitude
-0°
Longitude
175.05594°
Altitude
743.142 km
Speed
7.551 km/s
True Right ascension
13h 58m 07s
True Declination
0° 00' 00"
Sunlit
Object was in full shadow at TLE epoch
Visualization TLE readout
Latitude
-39.95701°
Longitude
75.61091°
Altitude
1,206.269 km
Speed
7.088 km/s
Apparent Right ascension
04h 47m 11s
Apparent Declination
-48° 31' 46"
Sunlit
Object is in daylight
Visualization observer readout
Local Sidereal Time
13:37:32
Azimuth
239.505° WSW
Elevation
-55.54°
Doppler factor
1
Orbital elements
Apogee altitude
1,204.041 km
Perigee altitude
544.977 km
Semi-major axis
7,252.646 km
Eccentricity
0.0454361
Inclination
39.9558°
RAAN
209.5319°
Arg. of periapsis
69.533°
True anomaly
290.54355°
Mean anomaly
295.3599°
Eccentric anomaly
292.96289°
Mean motion
3.51397 °/min
BSTAR
0.00066225
Orbital period
102.45 mins
Loading maneuver chart data...
Loading SW <> Apogee altitude chart data...
Loading historical data...
Loading historical data...
Loading historical data...
Loading historical data...
Loading historical data...
Loading historical data...
Loading historical data...

DIAMANT DEB Visibility forecast

Observer location: undefined°, undefined°

Span
Click to sort rows by Start time (UTC) header in descending order
Start Az.
Max El. time (UTC)
Max El. Az.
Max El.
End time (UTC)
End Az.
5 mins2025-05-09 07:49:51.785Z185.527° SSW2025-05-09 07:52:51.785Z140.755° SSE15.336°2025-05-09 07:54:51.785Z110.662° ESE
6 mins2025-05-09 09:36:51.785Z234.899° WSW2025-05-09 09:39:51.785Z152.374° SSE39.079°2025-05-09 09:42:51.785Z87.149° E
6 mins2025-05-09 11:24:51.785Z270.05° WNW2025-05-09 11:26:51.785Z273.189° WNW42.912°2025-05-09 11:30:51.785Z89.883° E
6 mins2025-05-09 13:12:51.785Z266.89° W2025-05-09 13:14:51.785Z208.926° SW40.174°2025-05-09 13:18:51.785Z120.431° SE
5 mins2025-05-09 15:00:51.785Z237.409° WSW2025-05-09 15:02:51.785Z204.027° SW18.535°2025-05-09 15:05:51.785Z166.579° S
|